Location: Mount Nemo Observatory
(43.4112°N, 79.8736°W)
Time: 23:03:31
(UTC-04:00)

OTV 5 (USA 277) - Visible Passes

Search period start: 20 June 2018 00:00
Search period end: 30 June 2018 00:00
Orbit: 313 x 320 km, 54.5° (Epoch: 19 June)

Date Brightness Start Highest point End Pass type
(mag) Time Alt. Az. Time Alt. Az. Time Alt. Az.
20 Jun ? 02:24:20 10° NNW 02:26:32 21° NNE 02:28:43 10° E visible
20 Jun ? 03:58:22 10° WNW 04:00:55 37° SW 04:01:26 33° SSW visible
20 Jun ? 21:53:34 10° W 21:55:44 21° NNW 21:57:54 10° NNE visible
21 Jun ? 01:05:16 10° N 01:06:13 11° NNE 01:07:09 10° NE visible
21 Jun ? 02:38:28 10° NW 02:40:25 35° N 02:40:25 35° N visible
21 Jun ? 22:08:59 10° NW 22:10:25 13° NNW 22:11:52 10° NNE visible
22 Jun ? 01:19:06 10° NNW 01:20:57 17° NNE 01:21:51 14° NE visible
23 Jun ? 01:33:08 10° NW 01:34:38 23° N 01:34:38 23° N visible
24 Jun ? 00:13:55 10° NNW 00:15:22 13° NNE 00:16:48 10° NE visible
24 Jun ? 01:47:23 10° NW 01:47:42 13° NW 01:47:42 13° NW visible
25 Jun ? 00:27:52 10° NNW 00:30:03 21° NNE 00:30:05 21° NNE visible
25 Jun ? 23:08:50 10° N 23:09:44 11° NNE 23:10:38 10° NE visible
26 Jun ? 00:42:01 10° NW 00:43:24 24° NNW 00:43:24 24° NNW visible
26 Jun ? 23:22:39 10° NNW 23:24:29 16° NNE 23:25:57 12° ENE visible
27 Jun ? 00:56:22 10° NW 00:56:48 13° WNW 00:56:48 13° WNW visible
27 Jun ? 23:36:42 10° NNW 23:39:07 28° NNE 23:39:24 28° NE visible
28 Jun ? 22:17:28 10° NNW 22:18:53 13° NNE 22:20:18 10° NE visible
28 Jun ? 23:50:56 10° NW 23:52:54 42° NNW 23:52:54 42° NNW visible
29 Jun ? 22:31:26 10° NNW 22:33:35 21° NNE 22:35:36 11° ENE visible
